WGS F4 (USA 233)

Last updated on Wed Sep 17 2025 00:02:47 GMT+0000 (Coordinated Universal Time)

1 38070U 12003A 25259.60123875 -.00000234 00000+0 00000+0 0 9997 2 38070 0.0044 145.5514 0000860 138.2944 16.8156 1.00269651 41404
UTC large
Height (km)
Speed (km/s)
/
Latitude / Longitude
Inclination (degrees)
Orbital Period (minutes)
Azimuth
Elevation
Range (km)
Doppler Factor

Next 0 passes for location: London (51.5072 / 0.1276)

Sorry there are no passes over London.